User: anonymous   Login
Location: Theydon Bois
(51.6750°N, 0.1050°E)
Time: 12:18:25
(UTC+01:00)
Language:

NOSS 3-3 (C) - Orbit

View from above orbital plane
View from above orbital plane
View from above satellite
View from above satellite

Ground track
Ground track

The orbit data is extracted from the following two-line orbital elements,

1 28541U 05004C   18196.99970010 0.00000000  00000-0  00000-0 0    02
2 28541  63.4341 264.6175 0301173 358.3159   1.6841 13.40752725    09
Epoch (UTC): 15 July 2018 23:59:34
Eccentricity: 0.0301173
inclination: 63.4341°
perigee height: 881 km
apogee height: 1332 km
right ascension of ascending node: 264.6175°
argument of perigee: 358.3159°
revolutions per day: 13.40752725
mean anomaly at epoch: 1.6841°
orbit number at epoch: 0

The dashed part of the orbit path shows where the satellite is in the earth's shadow,  

DLR